Home   Weather   Dormagen   Past weeks

Flag for Germany Past Weather in Dormagen, North Rhine-Westphalia, Germany — Yesterday and Last 2 Weeks

Now
72 °F

Sunny.


Feels Like: 75 °F
Forecast: 61 / 66 °F
Wind: 12 mph from South

Location: Duesseldorf

Current Time: Aug 17, 2017 at 11:42:00 am

Latest Report: Aug 17, 2017 at 11:20 am


Visibility: 10 mi

Pressure: 29.98 "Hg

Humidity: 69%

Dew Point: 61 °F

Location of DormagenLocation

Past Weather in Dormagen — Graph

°F

Dormagen Temperature Yesterday

Maximum temperature yesterday: 77 °F (at 3:50 pm)
Minimum temperature yesterday: 59 °F (at 5:20 am)
Average temperature yesterday: 68 °F

High & Low Weather Summary for the Past Weeks

 TemperatureHumidityPressure
High79 °F (Aug 14, 4:50 pm)100% (Aug 2, 11:20 pm)30.24 "Hg (Aug 2, 11:20 pm)
Low52 °F (Aug 6, 4:20 am)39% (Aug 7, 2:50 pm)29.74 "Hg (Aug 8, 1:50 pm)
Average65 °F78%30.02 "Hg
* Reported Aug 2 10:20 am — Aug 17 10:20 am, Dormagen. Weather by CustomWeather, © 2017

Note: Actual official high and low records may vary slightly from our data, if they occured in-between our weather recording intervals... More about our weather records

Advertising

Dormagen Weather History for the Previous 24 Hours

Scroll right to see more
 ConditionsComfort  
Time TempWeatherWind HumidityBarometerVisibility
10:20 am
Thu, Aug 17
70 °FLight rain. Clear.10 mph69%30.01 "HgN/A
9:50 am68 °FBroken clouds.12 mph78%30.01 "HgN/A
9:20 am66 °FBroken clouds.12 mph78%30.01 "HgN/A
8:50 am64 °FSunny.12 mph83%30.01 "Hg10 mi
8:20 am64 °FSunny.10 mph83%30.01 "Hg10 mi
7:50 am63 °FSunny.10 mph88%30.01 "Hg10 mi
7:20 am63 °FSunny.9 mph88%30.01 "Hg10 mi
6:50 am63 °FSunny.8 mph88%30.01 "Hg10 mi
6:20 am61 °FClear.8 mph94%30.04 "Hg10 mi
5:50 am61 °FClear.7 mph94%30.04 "Hg10 mi
5:20 am61 °FClear.6 mph94%30.04 "Hg10 mi
4:50 am61 °FClear.7 mph94%30.04 "Hg10 mi
4:20 am63 °FClear.8 mph88%30.04 "Hg10 mi
3:50 am63 °FClear.9 mph88%30.04 "Hg10 mi
3:20 am63 °FClear.9 mph88%30.04 "Hg10 mi
2:50 am63 °FClear.10 mph88%30.04 "Hg10 mi
2:20 am63 °FClear.8 mph88%30.07 "Hg10 mi
1:50 am61 °FClear.2 mph94%30.07 "Hg10 mi
1:20 am61 °FClear.2 mph94%30.07 "Hg10 mi
12:50 am61 °FClear.1 mph94%30.07 "Hg10 mi
12:20 am63 °FClear.3 mph88%30.07 "Hg10 mi
11:50 pm
Wed, Aug 16
63 °FClear.5 mph88%30.07 "Hg10 mi
11:20 pm64 °FPassing clouds.5 mph88%30.09 "HgN/A
10:50 pm66 °FPassing clouds.2 mph83%30.09 "HgN/A
10:20 pm68 °FPassing clouds.3 mph78%30.09 "HgN/A
9:50 pm68 °FPassing clouds.3 mph78%30.09 "HgN/A
8:50 pm70 °FSunny.3 mph73%30.09 "Hg10 mi
8:20 pm72 °FSunny.3 mph65%30.09 "Hg10 mi
7:50 pm72 °FSunny.5 mph69%30.09 "Hg10 mi
7:20 pm72 °FSunny.5 mph65%30.09 "Hg10 mi
6:50 pm73 °FSunny.5 mph57%30.12 "Hg10 mi
6:20 pm73 °FSunny.3 mph57%30.12 "Hg10 mi
5:50 pm73 °FPartly sunny.6 mph57%30.12 "HgN/A
5:20 pm75 °FPartly sunny.3 mph50%30.12 "HgN/A
4:50 pm75 °FPartly sunny.2 mph50%30.12 "HgN/A
4:20 pm75 °FPartly sunny.6 mph50%30.12 "HgN/A
3:50 pm77 °FPartly sunny.3 mph47%30.12 "HgN/A
3:20 pm75 °FPartly sunny.3 mph50%30.12 "HgN/A
2:50 pm75 °FPartly sunny.2 mph54%30.15 "HgN/A
2:20 pm73 °FPartly sunny.5 mph57%30.15 "HgN/A
1:50 pm75 °FPartly sunny.6 mph57%30.15 "HgN/A
1:20 pm73 °FPartly sunny.3 mph61%30.15 "HgN/A
12:50 pm72 °FPartly sunny.3 mph65%30.15 "HgN/A
12:20 pm70 °FPartly sunny.3 mph73%30.15 "HgN/A
11:50 am70 °FPartly sunny.2 mph73%30.15 "HgN/A
11:20 am70 °FPartly sunny.3 mph73%30.18 "HgN/A
Weather by CustomWeather, © 2017

See weather overviewHow to use our weather pages